Regional Weather Roundup
Issued by NWS Albany, NY

Home | Current Version | Previous Version | Text Only | Print | Product List | Glossary On
Versions: 1 2 3 4 5 6 7 8 9 10 11 12 13 14 15 16 17 18 19 20 21 22 23 24 25 26 27 28 29 30 31 32 33 34 35 36 37 38 39 40 41 42 43 44 45 46 47 48 49 50
000
ASUS41 KALY 031910
RWRALY

NEW YORK STATE HOURLY WEATHER ROUNDUP
NATIONAL WEATHER SERVICE ALBANY NY
300 PM EDT SUN MAY 03 2015

NOTE: "FAIR" INDICATES FEW OR NO CLOUDS BELOW 12,000 FEET WITH NO
SIGNIFICANT WEATHER AND/OR NO OBSTRUCTIONS TO VISIBILITY.

NYZ032-033-038>043-046>054-057>066-NYZ062>081-032000-
EAST


CITY           SKY/WX    TMP DP  RH WIND       PRES   REMARKS
ALBANY         PTSUNNY   79  37  22 VRB6      30.02F
GLENS FALLS    PTSUNNY   75  39  27 SW9       30.01F
POUGHKEEPSIE   PTSUNNY   77  36  22 CALM      30.03F
MONTGOMERY     CLOUDY    76  37  24 W5        30.03F
WHITE PLAINS   MOSUNNY   77  37  23 W8        30.05F
ISLIP          PTSUNNY   64  45  49 S10       30.09S
NEW YORK CITY  MOSUNNY   74  37  26 S15       30.06F
CENTRAL PARK   SUNNY     78  39  24 VRB6      30.09S
$$

NYZ005>009-017-018-044>046-055-056-032000-
CENTRAL


CITY           SKY/WX    TMP DP  RH WIND       PRES   REMARKS
FULTON         SUNNY     76  34  21 MISG      30.05F
SYRACUSE       MOSUNNY   77  37  23 NW8G16    30.05F
ROME           MOSUNNY   75  38  26 SW17      30.05F
ELMIRA         CLOUDY    75  40  28 CALM      30.06S
BINGHAMTON     MOSUNNY   73  34  23 W6        30.07F
MONTICELLO     MOSUNNY   72  34  25 NW7G20    30.09S
$$

NYZ026>034-041>043-032000-
NORTH


CITY           SKY/WX    TMP DP  RH WIND       PRES   REMARKS
WATERTOWN      SUNNY     69  43  38 W9        30.05F
FORT DRUM      NOT AVBL
MASSENA        SUNNY     78  40  25 W13       30.00S
SARANAC LAKE   PTSUNNY   71  30  21 SW9       30.01F
PLATTSBURGH    PTSUNNY   72  37  28 SE7       29.99F
$$

NYZ001>004-010>016-019>021-032000-
WEST


CITY           SKY/WX    TMP DP  RH WIND       PRES   REMARKS
NIAGARA FALLS  MOSUNNY   74  42  31 SW17      30.05S
BUFFALO        MOSUNNY   68  41  37 SW15      30.08S
DUNKIRK        SUNNY     71  41  33 W13       30.09S
JAMESTOWN      MOSUNNY   70  41  35 S9        30.11F
WELLSVILLE     PTSUNNY   72  35  25 W9        30.12S
ROCHESTER      MOSUNNY   78  39  24 W7        30.05S
PENN YAN       MOSUNNY   76  39  26 SW7       30.07S
$$

             KEY
       WCI = WIND CHILL INDEX
       VSB = VISIBILITY
       HX  = HEAT INDEX
$$



USA.gov is the U.S. government's official web portal to all federal, state and local government web resources and services.